Change the Weather History Date:

Wednesday, February 22, 2012

  Actual Average Record
Temperature  
Mean Temperature 68 °F 64 °F  
Max Temperature 74 °F 73 °F 85 °F (1949)
Min Temperature 61 °F 55 °F 32 °F (1977)
Degree Days  
Heating Degree Days 0 3  
Month to date heating degree days 46 89  
Since 1 July heating degree days 204 454  
Cooling Degree Days 3 2  
Month to date cooling degree days 87 44  
Year to date cooling degree days 140 94  
Growing Degree Days 18 (Base 50)    
Moisture  
Dew Point 63 °F    
Average Humidity 82    
Maximum Humidity 90    
Minimum Humidity 73    
Precipitation  
Precipitation 0.03 in 0.10 in 1.66 in (1904)
Month to date precipitation 1.86 2.25  
Year to date precipitation 2.94 4.48  
Sea Level Pressure  
Sea Level Pressure 30.04 in    
Wind  
Wind Speed 6 mph (South)    
Max Wind Speed 16 mph    
Max Gust Speed 22 mph    
Visibility 10 miles    
Events Rain    
T = Trace of Precipitation, MM = Missing Value Source: NWS Daily Summary

Daily Weather History Graph

Daily Weather History Graph

Search for Another Location

Airport or City:

Trip Planner

Search our weather history database for the weather conditions in past years. The results will help you decide how hot, cold, wet, or windy it might be!

Date:

Astronomy

Feb. 22, 2012 Rise Set
Actual Time 7:02 AM EST 6:25 PM EST
Civil Twilight 6:38 AM EST 6:49 PM EST
Nautical Twilight 6:10 AM EST 7:16 PM EST
Astronomical Twilight 5:43 AM EST 7:44 PM EST
Moon 7:07 AM EST (2/22) 7:20 PM EST (2/22)
Length of Visible Light 12h 11m
Length of Day
11h 23m
New Moon, 1% of the Moon is Illuminated
Feb 22
New Moon
Feb 29
First Quarter
Mar 8
Full
Mar 14
Last Quarter
Mar 22
New

Hourly Weather History & Observations

Time (EST) Temp. Dew Point Humidity Pressure Visibility Wind Dir Wind Speed Gust Speed Precip Events Conditions
12:53 AM 64.9 °F 57.9 °F 78% 30.12 in 10.0 mi Calm Calm - N/A   Mostly Cloudy
1:53 AM 64.0 °F 57.9 °F 80% 30.10 in 10.0 mi ESE 3.5 mph - N/A   Scattered Clouds
2:53 AM 63.0 °F 57.9 °F 84% 30.09 in 10.0 mi Calm Calm - N/A   Scattered Clouds
3:53 AM 64.0 °F 57.9 °F 80% 30.09 in 10.0 mi Calm Calm - N/A   Mostly Cloudy
4:53 AM 64.0 °F 59.0 °F 84% 30.08 in 10.0 mi Calm Calm - N/A   Mostly Cloudy
5:53 AM 64.9 °F 59.0 °F 81% 30.09 in 10.0 mi Calm Calm - N/A   Mostly Cloudy
6:29 AM 64.4 °F 60.8 °F 88% 30.09 in 10.0 mi SE 3.5 mph - N/A   Mostly Cloudy
6:53 AM 64.9 °F 60.1 °F 84% 30.09 in 10.0 mi Calm Calm - N/A   Mostly Cloudy
7:53 AM 66.0 °F 61.0 °F 84% 30.10 in 10.0 mi South 4.6 mph - N/A   Mostly Cloudy
8:32 AM 66.2 °F 62.6 °F 88% 30.11 in 10.0 mi South 4.6 mph - N/A   Mostly Cloudy
8:53 AM 68.0 °F 63.0 °F 84% 30.11 in 10.0 mi South 5.8 mph - N/A   Overcast
8:55 AM 68.0 °F 62.6 °F 83% 30.11 in 10.0 mi South 6.9 mph - N/A   Overcast
9:07 AM 68.0 °F 62.6 °F 83% 30.11 in 10.0 mi South 8.1 mph - N/A   Overcast
9:12 AM 69.8 °F 64.4 °F 83% 30.11 in 10.0 mi South 6.9 mph - N/A   Overcast
9:26 AM 69.8 °F 64.4 °F 83% 30.12 in 10.0 mi South 8.1 mph - N/A   Overcast
9:53 AM 70.0 °F 64.0 °F 81% 30.12 in 10.0 mi SSW 10.4 mph - N/A   Overcast
10:53 AM 72.0 °F 64.0 °F 76% 30.11 in 10.0 mi South 10.4 mph - N/A   Overcast
11:53 AM 72.0 °F 64.9 °F 78% 30.07 in 10.0 mi South 11.5 mph - N/A   Overcast
12:53 PM 72.0 °F 64.0 °F 76% 30.04 in 10.0 mi South 12.7 mph - N/A   Overcast
1:53 PM 73.0 °F 64.0 °F 73% 30.00 in 10.0 mi South 13.8 mph - N/A   Overcast
2:53 PM 73.0 °F 64.9 °F 76% 29.98 in 10.0 mi South 13.8 mph 20.7 mph N/A   Overcast
3:03 PM 73.4 °F 64.4 °F 73% 29.98 in 10.0 mi South 11.5 mph - N/A   Overcast
3:28 PM 71.6 °F 64.4 °F 78% 29.96 in 10.0 mi South 13.8 mph - N/A   Overcast
3:53 PM 72.0 °F 64.0 °F 76% 29.96 in 10.0 mi South 12.7 mph - N/A   Overcast
4:53 PM 71.1 °F 64.9 °F 81% 29.96 in 10.0 mi SSW 13.8 mph - 0.00 in Rain Light Rain
5:44 PM 71.6 °F 64.4 °F 78% 29.98 in 10.0 mi SSW 4.6 mph - 0.00 in   Overcast
5:53 PM 72.0 °F 64.9 °F 78% 29.99 in 10.0 mi Calm Calm - 0.00 in   Overcast
6:53 PM 68.0 °F 62.1 °F 81% 29.98 in 10.0 mi South 3.5 mph - 0.02 in   Overcast
7:53 PM 70.0 °F 64.0 °F 81% 29.99 in 10.0 mi Calm Calm - N/A   Overcast
8:13 PM 69.8 °F 64.4 °F 83% 29.99 in 10.0 mi South 5.8 mph - N/A   Overcast
8:53 PM 70.0 °F 66.0 °F 87% 29.98 in 10.0 mi South 4.6 mph - N/A   Overcast
9:53 PM 71.1 °F 66.0 °F 84% 29.98 in 10.0 mi South 10.4 mph - N/A   Overcast
10:01 PM 71.6 °F 66.2 °F 83% 29.98 in 10.0 mi South 10.4 mph - N/A   Overcast
10:38 PM 69.8 °F 66.2 °F 88% 29.97 in 10.0 mi South 12.7 mph - 0.00 in Rain Light Rain
10:53 PM 70.0 °F 66.9 °F 90% 29.96 in 10.0 mi South 12.7 mph - 0.00 in Rain Light Rain
11:53 PM 70.0 °F 66.9 °F 90% 29.96 in 10.0 mi South 10.4 mph - 0.01 in   Overcast